Tracking 29969 objects as of 6-Dec-2024
HD Live streaming from Space Station
objects crossing your sky now

IRIDIUM 33 DEB

Track IRIDIUM 33 DEB now!
10-day predictions


NORAD ID: 38228
Int'l Code: 1997-051ZC
Perigee: 765.5 km
Apogee: 857.4 km
Inclination: 86.3 °
Period: 101.0 minutes
Semi major axis: 7182 km
RCS: 0.0068 m2 (small)
Launch date: September 14, 1997
Source: United States (US)
Launch site: TYURATAM MISSILE AND SPACE COMPLEX (TTMTR)

Note: This is SATELLITE DEBRIS
Your satellite tracking list
Your tracking list is empty




NASA's NSSDC Master Catalog

Two Line Element Set (TLE):
1 38228U 97051ZC  24338.90341660  .00002757  00000-0  11189-2 0  9997
2 38228  86.2980 207.1554 0063976 315.7795  55.3834 14.26238423794519
Source of the keplerian elements: AFSPC